GW2584 Weather Reports


Display with metric or nautical units.
time (UTC)temp
F
wind
direction
speed
MPH
gust
MPH
rain 1hr
in
rain 24hr
in
rain mn
in
humidity
%
barometer
mb
20260831121609 64 212 0.0 3.0 0.00 0.05 0.00 42 1024.3
20260831120103 65 0 0.0 6.0 0.00 0.05 0.00 42 1024.2
20260831114602 65 203 3.0 7.0 0.00 0.05 0.00 41 1024.2
20260831113105 62 0 0.0 3.0 0.00 0.05 0.00 46 1024.1
20260831111606 63 0 0.0 4.0 0.00 0.05 0.00 44 1024.2
20260831104611 63 235 2.0 7.0 0.00 0.05 0.00 43 1024.1
20260831103106 63 241 1.0 6.0 0.00 0.05 0.00 44 1024.0
20260831101606 64 231 4.0 9.0 0.00 0.05 0.00 42 1024.0
20260831100124 63 213 2.0 6.0 0.00 0.05 0.00 43 1023.9
20260831094607 63 195 1.0 6.0 0.00 0.05 0.00 44 1023.7
20260831093132 63 221 2.0 6.0 0.00 0.05 0.00 44 1023.6
20260831091606 63 0 1.0 3.0 0.00 0.05 0.00 43 1023.6
20260831090129 63 193 2.0 10.0 0.00 0.05 0.00 43 1023.6
20260831084604 64 219 2.0 5.0 0.00 0.05 0.00 42 1023.6
20260831083113 63 190 2.0 7.0 0.00 0.05 0.00 42 1023.6
20260831081606 64 171 0.0 4.0 0.00 0.05 0.00 42 1023.7
20260831080129 64 203 1.0 7.0 0.00 0.05 0.00 42 1023.8
20260831074606 64 195 2.0 6.0 0.00 0.05 0.00 43 1024.0
20260831073105 63 180 2.0 10.0 0.00 0.05 0.00 44 1024.3
20260831071605 63 181 2.0 7.0 0.00 0.05 0.00 45 1024.5
20260831070112 63 244 3.0 9.0 0.00 0.05 0.00 46 1024.6
20260831064608 63 224 6.0 14.0 0.00 0.05 0.00 47 1024.6
20260831063114 63 153 4.0 12.0 0.00 0.05 0.00 48 1024.5
20260831061612 63 228 4.0 12.0 0.00 0.05 0.00 49 1024.4
20260831060109 62 188 1.0 8.0 0.00 0.05 0.00 51 1024.3
20260831054611 61 223 3.0 10.0 0.00 0.05 0.05 51 1024.5
20260831053132 61 0 1.0 9.0 0.00 0.05 0.05 52 1024.8
20260831051606 61 139 1.0 13.0 0.00 0.05 0.05 52 1025.0
20260831050109 62 203 6.0 16.0 0.00 0.05 0.05 50 1025.8
20260831044645 64 262 4.0 21.0 0.00 0.05 0.05 48 1026.1
20260831043107 66 217 4.0 10.0 0.00 0.05 0.05 46 1025.7
20260831041617 66 179 5.0 16.0 0.00 0.05 0.05 44 1025.7
20260831040109 66 208 4.0 8.0 0.00 0.05 0.05 45 1024.9
20260831034609 66 221 3.0 8.0 0.00 0.05 0.05 44 1024.8
20260831033110 66 165 3.0 6.0 0.00 0.05 0.05 44 1024.6
20260831031605 66 222 3.0 9.0 0.00 0.05 0.05 44 1024.7
20260831030104 66 189 3.0 6.0 0.00 0.05 0.05 46 1024.6
20260831024602 66 207 4.0 11.0 0.00 0.05 0.05 46 1024.3
20260831023107 66 274 4.0 8.0 0.00 0.05 0.05 46 1024.3
20260831021605 66 203 3.0 9.0 0.00 0.05 0.05 46 1024.0
20260831020104 66 173 3.0 7.0 0.00 0.05 0.05 45 1023.7
20260831014603 67 239 3.0 10.0 0.00 0.05 0.05 44 1023.8
20260831013106 67 207 4.0 11.0 0.00 0.05 0.05 43 1023.8
20260831011602 68 188 4.0 12.0 0.00 0.05 0.05 42 1023.8
20260831010118 68 249 3.0 10.0 0.00 0.05 0.05 41 1023.7
20260831004617 68 241 2.0 13.0 0.00 0.05 0.05 40 1023.8
20260831003111 69 214 5.0 12.0 0.00 0.05 0.05 40 1023.7
20260831001604 69 266 4.0 12.0 0.00 0.05 0.05 39 1023.8
20260831000111 70 200 4.0 15.0 0.00 0.05 0.05 39 1023.9
20260830234626 70 205 6.0 17.0 0.00 0.05 0.05 38 1023.9
20260830233105 71 205 4.0 14.0 0.00 0.05 0.05 38 1023.9
20260830231613 71 220 6.0 13.0 0.00 0.05 0.05 38 1023.4
20260830230105 72 225 2.0 14.0 0.00 0.05 0.05 37 1023.4
20260830224604 71 255 4.0 17.0 0.00 0.05 0.05 37 1023.2
20260830223102 71 200 5.0 13.0 0.00 0.05 0.05 38 1023.1
20260830221609 70 197 9.0 24.0 0.00 0.05 0.05 39 1023.5
20260830220106 68 229 8.0 22.0 0.00 0.05 0.05 42 1023.7
20260830214607 68 239 8.0 19.0 0.00 0.05 0.05 42 1023.7
20260830213115 67 244 5.0 16.0 0.00 0.05 0.05 45 1024.1
20260830211617 66 202 6.0 18.0 0.01 0.05 0.05 46 1024.6
20260830210109 65 276 5.0 20.0 0.05 0.05 0.05 50 1024.5
20260830204605 63 184 6.0 13.0 0.05 0.05 0.05 63 1024.5
20260830203118 58 0 3.0 15.0 0.05 0.05 0.05 75 1024.7
20260830201612 62 221 7.0 21.0 0.04 0.04 0.04 62 1026.0
20260830200112 71 143 5.0 15.0 0.00 0.00 0.00 41 1024.7
20260830194606 72 293 1.0 15.0 0.00 0.00 0.00 39 1023.6
20260830193104 71 101 2.0 6.0 0.00 0.00 0.00 40 1023.1
20260830191625 70 246 2.0 7.0 0.00 0.00 0.00 44 1023.2
20260830190110 74 338 4.0 10.0 0.00 0.00 0.00 36 1023.2
20260830184608 75 0 3.0 12.0 0.00 0.00 0.00 34 1022.3
20260830183104 75 87 6.0 12.0 0.00 0.00 0.00 34 1022.6
20260830181602 75 61 8.0 14.0 0.00 0.00 0.00 34 1022.6
20260830180108 77 39 4.0 13.0 0.00 0.00 0.00 31 1022.6
20260830174617 78 195 2.0 8.0 0.00 0.00 0.00 30 1022.8
20260830173106 77 125 3.0 10.0 0.00 0.00 0.00 33 1022.8
20260830171604 76 89 2.0 8.0 0.00 0.00 0.00 34 1022.9
20260830170109 74 100 3.0 14.0 0.00 0.00 0.00 36 1023.0
20260830164606 73 212 3.0 9.0 0.00 0.00 0.00 36 1023.5
20260830163104 72 119 3.0 9.0 0.00 0.00 0.00 38 1023.5
20260830161621 70 224 4.0 15.0 0.00 0.00 0.00 39 1023.5
20260830160107 70 225 4.0 10.0 0.00 0.00 0.00 40 1023.6
20260830154606 67 186 4.0 11.0 0.00 0.00 0.00 44 1023.9
20260830153114 66 205 2.0 11.0 0.00 0.00 0.00 45 1023.6
20260830151603 66 290 6.0 14.0 0.00 0.00 0.00 46 1023.8
20260830150120 66 169 4.0 14.0 0.00 0.00 0.00 47 1024.4
20260830144607 66 169 8.0 17.0 0.00 0.00 0.00 45 1024.1
20260830143105 65 231 4.0 12.0 0.00 0.00 0.00 47 1023.4
20260830141602 65 192 2.0 12.0 0.00 0.00 0.00 48 1022.9
20260830140105 64 206 3.0 15.0 0.00 0.00 0.00 49 1023.0
20260830134607 63 223 3.0 10.0 0.00 0.00 0.00 51 1023.1
20260830133104 63 186 4.0 9.0 0.00 0.00 0.00 51 1023.1
20260830131604 63 220 5.0 12.0 0.00 0.00 0.00 50 1023.0
20260830130111 64 219 5.0 14.0 0.00 0.00 0.00 47 1022.9
20260830124608 65 248 3.0 9.0 0.00 0.00 0.00 46 1022.8
20260830123103 65 224 4.0 11.0 0.00 0.00 0.00 46 1022.6